| time (UTC) | temp F | wind direction | speed MPH | gust MPH | rain 1hr in | rain 24hr in | rain mn in | humidity % | barometer mb |
| 20260505102056 | 57 | 0 | 0.0 | 0.0 | 0.00 | 0.00 | 0.08 | 99 | 1009.0 |
| 20260505101556 | 57 | 139 | 1.0 | 1.0 | 0.00 | 0.00 | 0.08 | 99 | 1009.0 |
| 20260505101056 | 57 | 145 | 0.0 | 2.0 | 0.00 | 0.00 | 0.08 | 100 | 1009.0 |
| 20260505100556 | 57 | 0 | 0.0 | 0.0 | 0.01 | 0.00 | 0.07 | 100 | 1009.0 |
| 20260505100056 | 57 | 264 | 0.0 | 1.0 | 0.01 | 0.00 | 0.07 | 99 | 1010.0 |
| 20260505095557 | 57 | 269 | 1.0 | 2.0 | 0.02 | 0.00 | 0.07 | 99 | 1010.0 |
| 20260505095059 | 58 | 274 | 0.0 | 1.0 | 0.05 | 0.00 | 0.07 | 99 | 1010.0 |
| 20260505094557 | 58 | 257 | 1.0 | 3.0 | 0.09 | 0.00 | 0.07 | 98 | 1010.0 |
| 20260505094056 | 58 | 268 | 1.0 | 3.0 | 0.16 | 0.00 | 0.05 | 98 | 1010.0 |
| 20260505093556 | 58 | 245 | 2.0 | 3.0 | 0.28 | 0.00 | 0.03 | 96 | 1010.0 |
| 20260505093058 | 59 | 260 | 2.0 | 3.0 | 0.08 | 0.00 | 0.02 | 95 | 1010.0 |
| 20260505092558 | 59 | 259 | 2.0 | 3.0 | 0.04 | 0.00 | 0.01 | 93 | 1010.0 |
| 20260505092058 | 60 | 262 | 1.0 | 3.0 | 0.02 | 0.00 | 0.01 | 91 | 1010.0 |
| 20260505091556 | 60 | 275 | 3.0 | 7.0 | 0.03 | 0.00 | 0.00 | 88 | 1010.0 |
| 20260505091058 | 61 | 252 | 3.0 | 5.0 | 0.03 | 0.00 | 0.00 | 84 | 1009.0 |
| 20260505090557 | 62 | 276 | 3.0 | 6.0 | 0.01 | 0.00 | 0.00 | 80 | 1009.0 |
| 20260505090056 | 62 | 304 | 1.0 | 4.0 | 0.00 | 0.00 | 0.00 | 79 | 1009.0 |
| 20260505085556 | 61 | 273 | 1.0 | 4.0 | 0.00 | 0.00 | 0.00 | 78 | 1008.0 |
| 20260505085057 | 61 | 238 | 0.0 | 2.0 | 0.00 | 0.00 | 0.00 | 78 | 1008.0 |
| 20260505084556 | 61 | 346 | 0.0 | 1.0 | 0.00 | 0.00 | 0.00 | 80 | 1008.0 |
| 20260505084057 | 61 | 356 | 0.0 | 1.0 | 0.00 | 0.00 | 0.00 | 78 | 1008.0 |
| 20260505083556 | 61 | 0 | 0.0 | 2.0 | 0.00 | 0.00 | 0.00 | 77 | 1008.0 |
| 20260505083056 | 61 | 144 | 0.0 | 0.0 | 0.00 | 0.00 | 0.00 | 77 | 1008.0 |
| 20260505082556 | 61 | 0 | 0.0 | 0.0 | 0.00 | 0.00 | 0.00 | 78 | 1008.0 |
| 20260505082101 | 61 | 0 | 0.0 | 0.0 | 0.00 | 0.00 | 0.00 | 78 | 1008.0 |
| 20260505081557 | 61 | 316 | 0.0 | 2.0 | 0.00 | 0.00 | 0.00 | 76 | 1007.0 |
| 20260505081058 | 61 | 97 | 0.0 | 1.0 | 0.00 | 0.00 | 0.00 | 77 | 1007.0 |
| 20260505080556 | 61 | 75 | 0.0 | 0.0 | 0.00 | 0.00 | 0.00 | 77 | 1007.0 |
| 20260505080056 | 61 | 181 | 0.0 | 1.0 | 0.00 | 0.00 | 0.00 | 76 | 1007.0 |
| 20260505075556 | 61 | 97 | 0.0 | 1.0 | 0.00 | 0.00 | 0.00 | 76 | 1007.0 |
| 20260505075058 | 61 | 106 | 1.0 | 2.0 | 0.00 | 0.00 | 0.00 | 77 | 1007.0 |
| 20260505074556 | 61 | 126 | 0.0 | 1.0 | 0.00 | 0.00 | 0.00 | 76 | 1007.0 |
| 20260505074057 | 61 | 136 | 0.0 | 1.0 | 0.00 | 0.00 | 0.00 | 76 | 1007.0 |
| 20260505073556 | 62 | 158 | 0.0 | 0.0 | 0.00 | 0.00 | 0.00 | 74 | 1007.0 |
| 20260505073057 | 62 | 0 | 0.0 | 0.0 | 0.00 | 0.00 | 0.00 | 74 | 1007.0 |
| 20260505072556 | 62 | 0 | 0.0 | 0.0 | 0.00 | 0.00 | 0.00 | 74 | 1007.0 |
| 20260505072058 | 62 | 356 | 0.0 | 2.0 | 0.00 | 0.00 | 0.00 | 73 | 1007.0 |
| 20260505071556 | 62 | 320 | 0.0 | 1.0 | 0.00 | 0.00 | 0.00 | 72 | 1007.0 |
| 20260505071056 | 63 | 303 | 0.0 | 0.0 | 0.00 | 0.00 | 0.00 | 72 | 1007.0 |
| 20260505070556 | 63 | 0 | 0.0 | 0.0 | 0.00 | 0.00 | 0.00 | 71 | 1007.0 |
| 20260505070057 | 63 | 219 | 0.0 | 1.0 | 0.00 | 0.00 | 0.00 | 70 | 1007.0 |
| 20260505065556 | 63 | 159 | 1.0 | 2.0 | 0.00 | 0.00 | 0.00 | 69 | 1007.0 |
| 20260505065056 | 64 | 219 | 0.0 | 2.0 | 0.00 | 0.00 | 0.00 | 69 | 1007.0 |
| 20260505064557 | 64 | 163 | 0.0 | 1.0 | 0.00 | 0.00 | 0.00 | 69 | 1007.0 |
| 20260505064056 | 64 | 169 | 0.0 | 1.0 | 0.00 | 0.00 | 0.00 | 69 | 1007.0 |
| 20260505063556 | 64 | 175 | 0.0 | 2.0 | 0.00 | 0.00 | 0.00 | 69 | 1007.0 |
| 20260505063056 | 64 | 182 | 1.0 | 2.0 | 0.00 | 0.00 | 0.00 | 69 | 1007.0 |
| 20260505062556 | 64 | 198 | 0.0 | 1.0 | 0.00 | 0.00 | 0.00 | 69 | 1007.0 |
| 20260505062056 | 64 | 191 | 0.0 | 1.0 | 0.00 | 0.00 | 0.00 | 69 | 1007.0 |
| 20260505061557 | 64 | 136 | 0.0 | 2.0 | 0.00 | 0.00 | 0.00 | 68 | 1007.0 |
| 20260505061056 | 64 | 195 | 1.0 | 3.0 | 0.00 | 0.00 | 0.00 | 68 | 1007.0 |
| 20260505060556 | 64 | 157 | 1.0 | 3.0 | 0.00 | 0.00 | 0.00 | 68 | 1007.0 |
| 20260505060056 | 64 | 171 | 1.0 | 3.0 | 0.00 | 0.00 | 0.00 | 69 | 1007.0 |
| 20260505055557 | 64 | 184 | 1.0 | 3.0 | 0.00 | 0.00 | 0.00 | 67 | 1007.0 |
| 20260505055056 | 64 | 207 | 1.0 | 2.0 | 0.00 | 0.00 | 0.00 | 68 | 1006.0 |
| 20260505054556 | 64 | 178 | 2.0 | 4.0 | 0.00 | 0.00 | 0.00 | 67 | 1006.0 |
| 20260505054056 | 64 | 158 | 1.0 | 2.0 | 0.00 | 0.00 | 0.00 | 67 | 1006.0 |
| 20260505053556 | 65 | 167 | 0.0 | 2.0 | 0.00 | 0.00 | 0.00 | 68 | 1006.0 |
| 20260505053057 | 65 | 213 | 1.0 | 2.0 | 0.00 | 0.00 | 0.00 | 67 | 1006.0 |
| 20260505052556 | 65 | 189 | 2.0 | 3.0 | 0.00 | 0.00 | 0.00 | 66 | 1006.0 |
| 20260505052057 | 65 | 204 | 1.0 | 2.0 | 0.00 | 0.00 | 0.00 | 66 | 1006.0 |
| 20260505051556 | 65 | 155 | 1.0 | 3.0 | 0.00 | 0.00 | 0.00 | 66 | 1006.0 |
| 20260505051057 | 65 | 187 | 1.0 | 2.0 | 0.00 | 0.00 | 0.00 | 66 | 1006.0 |
| 20260505050556 | 65 | 173 | 1.0 | 2.0 | 0.00 | 0.00 | 0.00 | 66 | 1006.0 |
| 20260505041557 | 65 | 160 | 1.0 | 2.0 | 0.00 | 0.00 | 0.00 | 66 | 1007.0 |
| 20260505041056 | 65 | 192 | 1.0 | 2.0 | 0.00 | 0.00 | 0.00 | 66 | 1007.0 |
| 20260505040556 | 66 | 173 | 1.0 | 3.0 | 0.00 | 0.00 | 0.00 | 66 | 1007.0 |
| 20260505040056 | 66 | 161 | 1.0 | 3.0 | 0.00 | 0.00 | 0.00 | 66 | 1007.0 |
| 20260505035556 | 66 | 157 | 1.0 | 2.0 | 0.00 | 0.00 | 0.01 | 66 | 1007.0 |
| 20260505035056 | 66 | 167 | 1.0 | 3.0 | 0.00 | 0.00 | 0.01 | 65 | 1007.0 |
| 20260505034556 | 66 | 170 | 2.0 | 3.0 | 0.00 | 0.00 | 0.01 | 65 | 1007.0 |
| 20260505034056 | 66 | 189 | 2.0 | 3.0 | 0.00 | 0.00 | 0.01 | 65 | 1007.0 |
| 20260505033556 | 67 | 160 | 1.0 | 4.0 | 0.00 | 0.00 | 0.01 | 65 | 1007.0 |
| 20260505033056 | 67 | 165 | 0.0 | 2.0 | 0.00 | 0.00 | 0.01 | 65 | 1007.0 |
| 20260505032556 | 67 | 171 | 1.0 | 2.0 | 0.00 | 0.00 | 0.01 | 65 | 1007.0 |
| 20260505032056 | 67 | 163 | 1.0 | 3.0 | 0.00 | 0.00 | 0.01 | 65 | 1007.0 |
| 20260505031556 | 67 | 185 | 0.0 | 2.0 | 0.00 | 0.00 | 0.01 | 64 | 1007.0 |
| 20260505031056 | 67 | 169 | 0.0 | 2.0 | 0.00 | 0.00 | 0.01 | 64 | 1007.0 |
| 20260505030556 | 67 | 187 | 0.0 | 2.0 | 0.00 | 0.00 | 0.01 | 64 | 1007.0 |
| 20260505030058 | 67 | 164 | 1.0 | 2.0 | 0.00 | 0.00 | 0.01 | 64 | 1007.0 |
| 20260505025558 | 67 | 151 | 1.0 | 2.0 | 0.00 | 0.00 | 0.01 | 64 | 1007.0 |
| 20260505025059 | 67 | 182 | 1.0 | 2.0 | 0.00 | 0.00 | 0.01 | 64 | 1007.0 |
| 20260505024558 | 67 | 139 | 1.0 | 3.0 | 0.00 | 0.00 | 0.01 | 64 | 1006.0 |
| 20260505024058 | 67 | 166 | 1.0 | 3.0 | 0.00 | 0.00 | 0.01 | 64 | 1006.0 |
| 20260505023556 | 67 | 178 | 1.0 | 2.0 | 0.00 | 0.00 | 0.01 | 63 | 1006.0 |
| 20260505023058 | 68 | 150 | 0.0 | 2.0 | 0.00 | 0.00 | 0.01 | 63 | 1006.0 |
| 20260505022558 | 68 | 186 | 1.0 | 2.0 | 0.00 | 0.00 | 0.01 | 62 | 1006.0 |
| 20260505022059 | 68 | 174 | 0.0 | 1.0 | 0.00 | 0.00 | 0.01 | 61 | 1006.0 |
| 20260505021556 | 68 | 192 | 0.0 | 2.0 | 0.00 | 0.00 | 0.01 | 61 | 1006.0 |
| 20260505021058 | 68 | 167 | 1.0 | 2.0 | 0.00 | 0.00 | 0.01 | 62 | 1006.0 |
| 20260505020556 | 68 | 176 | 0.0 | 2.0 | 0.00 | 0.00 | 0.01 | 62 | 1006.0 |
| 20260505020056 | 68 | 177 | 0.0 | 1.0 | 0.00 | 0.00 | 0.01 | 61 | 1006.0 |
| 20260505015556 | 69 | 208 | 0.0 | 1.0 | 0.00 | 0.00 | 0.01 | 60 | 1006.0 |
| 20260505015056 | 69 | 194 | 2.0 | 3.0 | 0.00 | 0.00 | 0.01 | 60 | 1006.0 |
| 20260505014556 | 69 | 145 | 0.0 | 1.0 | 0.00 | 0.00 | 0.01 | 60 | 1005.0 |
| 20260505014057 | 69 | 171 | 1.0 | 3.0 | 0.00 | 0.00 | 0.01 | 60 | 1005.0 |
| 20260505013556 | 69 | 135 | 1.0 | 2.0 | 0.00 | 0.00 | 0.01 | 60 | 1005.0 |
| 20260505013056 | 69 | 182 | 1.0 | 2.0 | 0.00 | 0.00 | 0.01 | 59 | 1005.0 |
| 20260505012557 | 69 | 173 | 0.0 | 2.0 | 0.00 | 0.00 | 0.01 | 60 | 1005.0 |
| 20260505012056 | 69 | 162 | 0.0 | 2.0 | 0.00 | 0.00 | 0.01 | 60 | 1005.0 |
| 20260505011556 | 70 | 189 | 1.0 | 1.0 | 0.00 | 0.00 | 0.01 | 59 | 1005.0 |
| 20260505011057 | 70 | 171 | 0.0 | 1.0 | 0.00 | 0.00 | 0.01 | 59 | 1005.0 |
| 20260505010557 | 70 | 133 | 0.0 | 1.0 | 0.00 | 0.00 | 0.01 | 59 | 1005.0 |
| 20260505010059 | 71 | 199 | 0.0 | 2.0 | 0.00 | 0.00 | 0.01 | 58 | 1005.0 |
| 20260505005558 | 71 | 151 | 1.0 | 2.0 | 0.00 | 0.00 | 0.01 | 58 | 1005.0 |
| 20260505005105 | 71 | 180 | 2.0 | 3.0 | 0.00 | 0.00 | 0.01 | 58 | 1005.0 |
| 20260505004556 | 71 | 166 | 1.0 | 3.0 | 0.00 | 0.00 | 0.01 | 59 | 1005.0 |
| 20260505004056 | 71 | 175 | 0.0 | 1.0 | 0.00 | 0.00 | 0.01 | 59 | 1005.0 |
| 20260505003556 | 72 | 172 | 2.0 | 3.0 | 0.00 | 0.00 | 0.01 | 58 | 1005.0 |
| 20260505003056 | 72 | 156 | 1.0 | 2.0 | 0.00 | 0.00 | 0.01 | 58 | 1005.0 |
| 20260505002556 | 72 | 155 | 1.0 | 2.0 | 0.00 | 0.00 | 0.01 | 57 | 1005.0 |
| 20260505002106 | 72 | 215 | 1.0 | 3.0 | 0.00 | 0.00 | 0.01 | 57 | 1005.0 |
| 20260505001557 | 72 | 188 | 1.0 | 3.0 | 0.00 | 0.00 | 0.01 | 57 | 1005.0 |
| 20260505001056 | 73 | 151 | 1.0 | 2.0 | 0.00 | 0.00 | 0.01 | 58 | 1005.0 |
| 20260505000556 | 73 | 210 | 1.0 | 2.0 | 0.00 | 0.00 | 0.01 | 56 | 1005.0 |
| 20260505000057 | 73 | 184 | 2.0 | 4.0 | 0.00 | 0.00 | 0.01 | 56 | 1005.0 |
| 20260504235556 | 73 | 201 | 2.0 | 3.0 | 0.00 | 0.00 | 0.01 | 56 | 1006.0 |
| 20260504235056 | 73 | 157 | 1.0 | 3.0 | 0.00 | 0.00 | 0.01 | 55 | 1006.0 |
| 20260504234558 | 73 | 164 | 1.0 | 2.0 | 0.00 | 0.00 | 0.01 | 55 | 1006.0 |
| 20260504234056 | 74 | 200 | 1.0 | 4.0 | 0.00 | 0.00 | 0.01 | 54 | 1006.0 |
| 20260504233556 | 74 | 183 | 1.0 | 2.0 | 0.00 | 0.00 | 0.01 | 53 | 1006.0 |
| 20260504233056 | 74 | 191 | 1.0 | 2.0 | 0.00 | 0.00 | 0.01 | 53 | 1006.0 |
| 20260504232557 | 74 | 151 | 1.0 | 3.0 | 0.00 | 0.00 | 0.01 | 52 | 1006.0 |
| 20260504232056 | 74 | 173 | 1.0 | 2.0 | 0.00 | 0.00 | 0.01 | 52 | 1006.0 |
| 20260504231556 | 74 | 181 | 1.0 | 2.0 | 0.00 | 0.00 | 0.01 | 52 | 1006.0 |
| 20260504231057 | 74 | 184 | 1.0 | 3.0 | 0.00 | 0.00 | 0.01 | 52 | 1006.0 |
| 20260504230557 | 75 | 140 | 1.0 | 3.0 | 0.00 | 0.00 | 0.01 | 50 | 1006.0 |
| 20260504230056 | 75 | 196 | 1.0 | 3.0 | 0.00 | 0.00 | 0.01 | 50 | 1006.0 |
| 20260504225556 | 76 | 160 | 2.0 | 4.0 | 0.00 | 0.00 | 0.01 | 50 | 1006.0 |
| 20260504225057 | 76 | 187 | 3.0 | 6.0 | 0.00 | 0.00 | 0.01 | 48 | 1006.0 |
| 20260504224557 | 76 | 152 | 2.0 | 4.0 | 0.00 | 0.00 | 0.01 | 48 | 1006.0 |
| 20260504224056 | 76 | 135 | 2.0 | 4.0 | 0.00 | 0.00 | 0.01 | 48 | 1006.0 |
| 20260504223557 | 76 | 164 | 1.0 | 2.0 | 0.00 | 0.00 | 0.01 | 49 | 1006.0 |
| 20260504223056 | 77 | 222 | 2.0 | 4.0 | 0.00 | 0.00 | 0.01 | 47 | 1006.0 |
| 20260504222556 | 76 | 161 | 0.0 | 3.0 | 0.00 | 0.00 | 0.01 | 49 | 1007.0 |
| 20260504222056 | 76 | 214 | 3.0 | 6.0 | 0.00 | 0.00 | 0.01 | 46 | 1006.0 |
| 20260504221556 | 76 | 134 | 2.0 | 3.0 | 0.00 | 0.00 | 0.01 | 46 | 1007.0 |
| 20260504221057 | 76 | 138 | 1.0 | 2.0 | 0.00 | 0.00 | 0.01 | 52 | 1007.0 |
| 20260504220556 | 76 | 144 | 1.0 | 2.0 | 0.00 | 0.00 | 0.01 | 55 | 1007.0 |
| 20260504220056 | 76 | 139 | 1.0 | 2.0 | 0.00 | 0.00 | 0.01 | 54 | 1007.0 |
| 20260504215556 | 76 | 141 | 1.0 | 2.0 | 0.00 | 0.00 | 0.01 | 53 | 1007.0 |
| 20260504215056 | 76 | 144 | 1.0 | 2.0 | 0.00 | 0.00 | 0.01 | 56 | 1006.0 |
| 20260504214556 | 76 | 156 | 2.0 | 2.0 | 0.00 | 0.00 | 0.01 | 57 | 1006.0 |
| 20260504214056 | 76 | 164 | 2.0 | 2.0 | 0.00 | 0.00 | 0.01 | 57 | 1006.0 |
| 20260504213557 | 76 | 160 | 2.0 | 2.0 | 0.00 | 0.00 | 0.01 | 57 | 1007.0 |
| 20260504213056 | 76 | 154 | 2.0 | 2.0 | 0.00 | 0.00 | 0.01 | 55 | 1007.0 |
| 20260504212556 | 76 | 153 | 2.0 | 2.0 | 0.00 | 0.00 | 0.01 | 55 | 1007.0 |
| 20260504212056 | 76 | 142 | 1.0 | 2.0 | 0.00 | 0.00 | 0.01 | 53 | 1007.0 |
| 20260504211556 | 76 | 0 | 0.0 | 0.0 | 0.00 | 0.00 | 0.01 | 53 | 1007.0 |
| 20260504211058 | 77 | 277 | 1.0 | 3.0 | 0.00 | 0.00 | 0.01 | 50 | 1007.0 |
| 20260504210556 | 76 | 256 | 1.0 | 3.0 | 0.00 | 0.00 | 0.01 | 52 | 1007.0 |
| 20260504210057 | 76 | 195 | 1.0 | 2.0 | 0.00 | 0.00 | 0.01 | 52 | 1007.0 |
| 20260504205557 | 76 | 160 | 1.0 | 2.0 | 0.00 | 0.00 | 0.01 | 52 | 1007.0 |
| 20260504205056 | 77 | 212 | 1.0 | 2.0 | 0.00 | 0.00 | 0.01 | 52 | 1007.0 |
| 20260504204556 | 77 | 301 | 3.0 | 9.0 | 0.00 | 0.00 | 0.01 | 49 | 1007.0 |
| 20260504204056 | 76 | 229 | 0.0 | 2.0 | 0.00 | 0.00 | 0.01 | 51 | 1008.0 |
| 20260504203557 | 76 | 275 | 2.0 | 5.0 | 0.00 | 0.00 | 0.01 | 50 | 1008.0 |
| 20260504203056 | 75 | 178 | 1.0 | 2.0 | 0.00 | 0.00 | 0.01 | 52 | 1008.0 |
| 20260504202557 | 75 | 190 | 2.0 | 4.0 | 0.00 | 0.00 | 0.01 | 52 | 1008.0 |
| 20260504202056 | 75 | 213 | 1.0 | 2.0 | 0.00 | 0.00 | 0.01 | 52 | 1008.0 |
| 20260504201557 | 75 | 268 | 2.0 | 6.0 | 0.00 | 0.00 | 0.01 | 52 | 1008.0 |
| 20260504201057 | 75 | 202 | 2.0 | 3.0 | 0.00 | 0.00 | 0.01 | 53 | 1008.0 |
| 20260504200557 | 75 | 243 | 2.0 | 6.0 | 0.00 | 0.00 | 0.01 | 55 | 1008.0 |
| 20260504200057 | 74 | 142 | 2.0 | 4.0 | 0.00 | 0.00 | 0.01 | 55 | 1008.0 |
| 20260504195556 | 74 | 187 | 1.0 | 3.0 | 0.00 | 0.00 | 0.01 | 57 | 1008.0 |
| 20260504195056 | 75 | 271 | 1.0 | 3.0 | 0.00 | 0.00 | 0.01 | 55 | 1008.0 |
| 20260504194558 | 75 | 178 | 1.0 | 2.0 | 0.00 | 0.00 | 0.01 | 54 | 1008.0 |
| 20260504194056 | 75 | 158 | 1.0 | 3.0 | 0.00 | 0.00 | 0.01 | 56 | 1008.0 |
| 20260504193556 | 75 | 172 | 2.0 | 3.0 | 0.00 | 0.00 | 0.01 | 56 | 1008.0 |
| 20260504193057 | 74 | 161 | 1.0 | 4.0 | 0.00 | 0.00 | 0.01 | 56 | 1008.0 |
| 20260504192557 | 74 | 141 | 2.0 | 4.0 | 0.00 | 0.00 | 0.01 | 56 | 1008.0 |
| 20260504192057 | 73 | 171 | 3.0 | 5.0 | 0.00 | 0.00 | 0.01 | 57 | 1008.0 |
| 20260504191556 | 73 | 161 | 2.0 | 4.0 | 0.00 | 0.00 | 0.01 | 57 | 1009.0 |
| 20260504191056 | 73 | 184 | 1.0 | 3.0 | 0.00 | 0.00 | 0.01 | 61 | 1009.0 |
| 20260504190557 | 72 | 235 | 2.0 | 2.0 | 0.00 | 0.00 | 0.01 | 63 | 1009.0 |
| 20260504190056 | 71 | 284 | 2.0 | 5.0 | 0.00 | 0.00 | 0.01 | 61 | 1009.0 |
| 20260504185557 | 70 | 226 | 1.0 | 2.0 | 0.00 | 0.00 | 0.01 | 65 | 1009.0 |
| 20260504185057 | 70 | 143 | 0.0 | 3.0 | 0.00 | 0.00 | 0.01 | 63 | 1009.0 |
| 20260504184557 | 70 | 278 | 2.0 | 5.0 | 0.00 | 0.00 | 0.01 | 62 | 1009.0 |
| 20260504184058 | 69 | 283 | 1.0 | 5.0 | 0.00 | 0.00 | 0.01 | 63 | 1009.0 |
| 20260504183556 | 69 | 149 | 2.0 | 4.0 | 0.00 | 0.00 | 0.01 | 65 | 1009.0 |
| 20260504183057 | 69 | 300 | 0.0 | 1.0 | 0.00 | 0.00 | 0.01 | 64 | 1009.0 |
| 20260504182557 | 69 | 312 | 1.0 | 2.0 | 0.00 | 0.00 | 0.01 | 63 | 1009.0 |
| 20260504182056 | 69 | 185 | 1.0 | 2.0 | 0.00 | 0.00 | 0.01 | 62 | 1009.0 |
| 20260504181557 | 70 | 256 | 1.0 | 4.0 | 0.00 | 0.00 | 0.01 | 63 | 1009.0 |
| 20260504181057 | 70 | 189 | 2.0 | 3.0 | 0.00 | 0.00 | 0.01 | 61 | 1009.0 |
| 20260504180556 | 70 | 148 | 1.0 | 2.0 | 0.00 | 0.00 | 0.01 | 62 | 1009.0 |
| 20260504180056 | 70 | 161 | 2.0 | 4.0 | 0.00 | 0.00 | 0.01 | 62 | 1009.0 |
| 20260504175556 | 70 | 145 | 1.0 | 3.0 | 0.00 | 0.00 | 0.01 | 63 | 1009.0 |
| 20260504175056 | 70 | 263 | 1.0 | 3.0 | 0.00 | 0.00 | 0.01 | 63 | 1009.0 |
| 20260504174557 | 70 | 195 | 1.0 | 4.0 | 0.00 | 0.00 | 0.01 | 61 | 1009.0 |
| 20260504174058 | 71 | 168 | 1.0 | 4.0 | 0.00 | 0.00 | 0.01 | 60 | 1009.0 |
| 20260504173556 | 71 | 162 | 2.0 | 4.0 | 0.00 | 0.00 | 0.01 | 59 | 1009.0 |
| 20260504173056 | 72 | 188 | 1.0 | 2.0 | 0.00 | 0.00 | 0.01 | 59 | 1009.0 |
| 20260504172557 | 72 | 185 | 2.0 | 3.0 | 0.00 | 0.00 | 0.01 | 60 | 1008.0 |
| 20260504172058 | 73 | 156 | 2.0 | 3.0 | 0.00 | 0.00 | 0.01 | 56 | 1008.0 |
| 20260504171558 | 72 | 228 | 2.0 | 4.0 | 0.00 | 0.00 | 0.01 | 57 | 1008.0 |
| 20260504171056 | 72 | 197 | 3.0 | 4.0 | 0.00 | 0.00 | 0.01 | 58 | 1008.0 |
| 20260504170557 | 72 | 169 | 1.0 | 2.0 | 0.00 | 0.00 | 0.01 | 58 | 1009.0 |
| 20260504150956 | 67 | 218 | 1.0 | 2.0 | 0.00 | 0.00 | 0.01 | 65 | 1009.0 |
| 20260504150457 | 66 | 160 | 1.0 | 4.0 | 0.00 | 0.00 | 0.01 | 66 | 1009.0 |
| 20260504140958 | 61 | 222 | 1.0 | 2.0 | 0.00 | 0.00 | 0.01 | 71 | 1009.0 |
| 20260504140458 | 60 | 187 | 0.0 | 1.0 | 0.00 | 0.00 | 0.00 | 73 | 1009.0 |
| 20260504130359 | 55 | 173 | 1.0 | 2.0 | 0.00 | 0.00 | 0.00 | 76 | 1009.0 |